Location: Albany
(35.0170°S, 117.8920°E)
Time: 19:57:06
(UTC+08:00)

A-11 Canister half - Pass Details

Date: 31 January 2021
Orbit: 1525 x 1684 km, 47.3° (Epoch: 03 March)

Event Time Altitude Azimuth Distance (km) Brightness Sun altitude
Rises 01:09:40 0° 296° (WNW) 4,930 - -36.3°
Reaches altitude 10° 01:12:51 10° 293° (WNW) 3,950 - -36.1°
Exits shadow 01:20:28 53° 268° (W) 1,995 9.3 -35.7°
Maximum altitude 01:23:01 69° 210° (SSW) 1,779 9.2 -35.6°
Drops below altitude 10° 01:33:07 10° 126° (SE) 3,913 11.7 -34.9°
Sets 01:36:16 0° 123° (ESE) 4,883 12.3 -34.6°
